Weather History for La Grange, GA

Change the Weather History Date:

Monday, January 20, 2014

  Actual Average Record
Temperature  
Mean Temperature 46 °F -  
Max Temperature 68 °F 54 °F 72 °F (1951)
Min Temperature 23 °F 33 °F 10 °F (1985)
Degree Days  
Heating Degree Days 20    
Moisture  
Dew Point 26 °F    
Average Humidity 62    
Maximum Humidity 96    
Minimum Humidity 18    
Precipitation  
Precipitation 0.00 in - - ()
Sea Level Pressure  
Sea Level Pressure 30.01 in    
Wind  
Wind Speed 2 mph (WSW)    
Max Wind Speed 14 mph    
Max Gust Speed 20 mph    
Visibility 10 miles    
Events      
Averages and records for this station are not official NWS values.
T = Trace of Precipitation, MM = Missing Value Source: NWS Daily Summary

Daily Weather History Graph

Daily Weather History Graph

Search for Another Location

Airport:

Trip Planner

Search our weather history database for the weather conditions in past years. The results will help you decide how hot, cold, wet, or windy it might be!

Date:

Astronomy

Jan. 20, 2014 Rise Set
Actual Time 7:41 AM EST 6:01 PM EST
Civil Twilight 7:15 AM EST 6:27 PM EST
Nautical Twilight 6:45 AM EST 6:57 PM EST
Astronomical Twilight 6:15 AM EST 7:27 PM EST
Moon 10:18 PM EST (1/20) 9:56 AM EST (1/20)
Length of Visible Light 11h 12m
Length of Day
10h 19m
Waning Gibbous, 83% of the Moon is Illuminated
Jan 20
Waning Gibbous
Jan 24
Last Quarter
Jan 30
New
Feb 6
First Quarter
Feb 14
Full

Hourly Weather History & Observations

Time (EST) Temp. Dew Point Humidity Pressure Visibility Wind Dir Wind Speed Gust Speed Precip Events Conditions
12:15 AM 28.9 °F 25.5 °F 87% 30.10 in 10.0 mi Calm Calm - N/A   Clear
12:35 AM 28.8 °F 26.8 °F 92% 30.09 in 10.0 mi Calm Calm - N/A   Clear
12:55 AM 29.3 °F 27.3 °F 92% 30.09 in 10.0 mi Calm Calm - N/A   Clear
1:15 AM 28.0 °F 25.3 °F 90% 30.09 in 10.0 mi Calm Calm - N/A   Clear
1:35 AM 27.9 °F 25.5 °F 91% 30.08 in 10.0 mi Calm Calm - N/A   Clear
1:55 AM 27.5 °F 25.7 °F 93% 30.08 in 10.0 mi Calm Calm - N/A   Clear
2:15 AM 28.8 °F 25.9 °F 89% 30.08 in 10.0 mi Calm Calm - N/A   Clear
2:35 AM 27.1 °F 25.2 °F 92% 30.07 in 10.0 mi Calm Calm - N/A   Clear
2:55 AM 27.9 °F 25.5 °F 91% 30.07 in 10.0 mi Calm Calm - N/A   Clear
3:15 AM 27.3 °F 25.2 °F 92% 30.08 in 10.0 mi Calm Calm - N/A   Clear
3:35 AM 27.5 °F 26.1 °F 94% 30.07 in 10.0 mi Calm Calm - N/A   Clear
3:55 AM 26.4 °F 24.8 °F 94% 30.07 in 10.0 mi Calm Calm - N/A   Clear
4:15 AM 25.9 °F 23.7 °F 92% 30.07 in 10.0 mi Calm Calm - N/A   Clear
4:35 AM 26.4 °F 24.8 °F 94% 30.06 in 10.0 mi Calm Calm - N/A   Clear
4:55 AM 26.1 °F 24.4 °F 94% 30.06 in 10.0 mi Calm Calm - N/A   Clear
5:15 AM 25.5 °F 24.4 °F 96% 30.06 in 10.0 mi Calm Calm - N/A   Clear
5:35 AM 25.7 °F 24.3 °F 94% 30.06 in 10.0 mi Calm Calm - N/A   Clear
5:55 AM 24.6 °F 23.0 °F 94% 30.06 in 10.0 mi Calm Calm - N/A   Clear
6:15 AM 25.0 °F 23.7 °F 95% 30.06 in 10.0 mi Calm Calm - N/A   Clear
6:35 AM 25.2 °F 23.7 °F 94% 30.07 in 10.0 mi Calm Calm - N/A   Clear
6:55 AM 24.8 °F 22.8 °F 92% 30.07 in 10.0 mi Calm Calm - N/A   Clear
7:15 AM 24.4 °F 22.3 °F 91% 30.07 in 10.0 mi Calm Calm - N/A   Clear
7:35 AM 24.8 °F 22.3 °F 90% 30.08 in 10.0 mi Calm Calm - N/A   Clear
7:55 AM 23.9 °F 22.1 °F 93% 30.08 in 10.0 mi Calm Calm - N/A   Clear
8:15 AM 25.5 °F 23.2 °F 91% 30.08 in 10.0 mi Calm Calm - N/A   Clear
8:35 AM 27.9 °F 26.4 °F 94% 30.08 in 10.0 mi Calm Calm - N/A   Clear
8:55 AM 30.7 °F 28.2 °F 90% 30.08 in 10.0 mi Calm Calm - N/A   Clear
9:15 AM 34.2 °F 30.9 °F 88% 30.08 in 10.0 mi Calm Calm - N/A   Clear
9:35 AM 39.7 °F 32.4 °F 75% 30.09 in 10.0 mi Calm Calm - N/A   Clear
9:55 AM 44.2 °F 31.6 °F 61% 30.08 in 10.0 mi Calm Calm - N/A   Clear
10:15 AM 48.2 °F 31.3 °F 52% 30.08 in 10.0 mi Calm Calm - N/A   Clear
10:35 AM 49.5 °F 30.7 °F 49% 30.08 in 10.0 mi Calm Calm - N/A   Clear
10:55 AM 54.3 °F 28.2 °F 37% 30.07 in 10.0 mi West 10.4 mph - N/A   Clear
11:15 AM 56.1 °F 27.9 °F 34% 30.06 in 10.0 mi West 8.1 mph - N/A   Clear
11:35 AM 57.2 °F 27.9 °F 33% 30.05 in 10.0 mi West 5.8 mph - N/A   Clear
11:55 AM 59.0 °F 27.7 °F 30% 30.04 in 10.0 mi WNW 6.9 mph - N/A   Clear
12:15 PM 60.4 °F 28.0 °F 29% 30.03 in 10.0 mi SW 8.1 mph - N/A   Clear
12:35 PM 61.3 °F 27.1 °F 27% 30.01 in 10.0 mi WSW 8.1 mph - N/A   Clear
12:55 PM 63.7 °F 26.1 °F 24% 30.00 in 10.0 mi WNW 8.1 mph - N/A   Clear
1:15 PM 64.9 °F 23.0 °F 20% 29.99 in 10.0 mi West 9.2 mph - N/A   Clear
1:35 PM 65.7 °F 23.7 °F 20% 29.98 in 10.0 mi West 10.4 mph 17.3 mph N/A   Clear
1:55 PM 65.5 °F 21.2 °F 18% 29.97 in 10.0 mi WNW 13.8 mph 19.6 mph N/A   Clear
2:15 PM 66.6 °F 21.6 °F 18% 29.96 in 10.0 mi West 9.2 mph 18.4 mph N/A   Clear
2:35 PM 67.6 °F 23.0 °F 18% 29.96 in 10.0 mi WSW 5.8 mph - N/A   Clear
2:55 PM 68.0 °F 24.6 °F 19% 29.95 in 10.0 mi WSW 9.2 mph - N/A   Clear
3:15 PM 66.7 °F 23.9 °F 20% 29.95 in 10.0 mi West 9.2 mph - N/A   Clear
3:35 PM 66.2 °F 23.9 °F 20% 29.94 in 10.0 mi West 5.8 mph - N/A   Clear
3:55 PM 66.2 °F 25.3 °F 21% 29.94 in 10.0 mi WSW 6.9 mph - N/A   Clear
4:15 PM 65.5 °F 24.4 °F 21% 29.94 in 10.0 mi West 6.9 mph - N/A   Clear
4:35 PM 65.3 °F 25.3 °F 22% 29.94 in 10.0 mi SW 9.2 mph - N/A   Clear
4:55 PM 64.6 °F 24.8 °F 22% 29.94 in 10.0 mi WSW 6.9 mph - N/A   Clear
5:15 PM 63.3 °F 24.6 °F 23% 29.94 in 10.0 mi Calm Calm - N/A   Clear
5:35 PM 62.1 °F 24.1 °F 23% 29.94 in 10.0 mi West 4.6 mph - N/A   Clear
5:55 PM 59.4 °F 24.8 °F 27% 29.94 in 10.0 mi SW 4.6 mph - N/A   Clear
6:15 PM 56.8 °F 26.6 °F 31% 29.95 in 10.0 mi SW 4.6 mph - N/A   Clear
6:35 PM 55.8 °F 28.0 °F 35% 29.96 in 10.0 mi SW 4.6 mph - N/A   Clear
6:55 PM 55.4 °F 27.5 °F 34% 29.96 in 10.0 mi SW 3.5 mph - N/A   Clear
7:15 PM 53.4 °F 27.5 °F 37% 29.95 in 10.0 mi SSW 3.5 mph - N/A   Clear
7:35 PM 46.9 °F 29.7 °F 51% 29.96 in 10.0 mi Calm Calm - N/A   Clear
7:55 PM 45.5 °F 29.8 °F 54% 29.96 in 10.0 mi Calm Calm - N/A   Clear
8:15 PM 40.8 °F 29.1 °F 63% 29.95 in 10.0 mi Calm Calm - N/A   Clear
8:35 PM 40.3 °F 29.5 °F 65% 29.95 in 10.0 mi Calm Calm - N/A   Clear
8:55 PM 40.1 °F 29.8 °F 67% 29.95 in 10.0 mi Calm Calm - N/A   Clear
9:15 PM 38.8 °F 30.0 °F 71% 29.94 in 10.0 mi Calm Calm - N/A   Clear
9:35 PM 38.7 °F 29.5 °F 70% 29.94 in 10.0 mi Calm Calm - N/A   Clear
9:55 PM 37.6 °F 29.7 °F 73% 29.94 in 10.0 mi Calm Calm - N/A   Clear
10:15 PM 37.4 °F 30.0 °F 75% 29.94 in 10.0 mi Calm Calm - N/A   Clear
10:35 PM 35.6 °F 29.3 °F 78% 29.94 in 10.0 mi Calm Calm - N/A   Clear
10:55 PM 33.6 °F 28.6 °F 82% 29.93 in 10.0 mi Calm Calm - N/A   Clear
11:15 PM 34.2 °F 28.9 °F 81% 29.92 in 10.0 mi Calm Calm - N/A   Clear
11:35 PM 35.4 °F 29.1 °F 78% 29.92 in 10.0 mi Calm Calm - N/A   Clear
11:55 PM 33.3 °F 28.2 °F 82% 29.92 in 10.0 mi Calm Calm - N/A   Clear